www.pogodaiklimat.ru

Погода и климат >> Архив погоды >> Россия >> Тува >> Кызыл


АРХИВ ПОГОДЫ в Кызыле

Время (UTC), дата Ветер
(напр.,м/с)
 
Видим.   Явления Облачность Т
(С)
Тd
(С)
f
(%)
Тe
(С)
Тes
(С)
Комфортность P
(гПа)
Po
(гПа)
Тmin
(С)
Tmax
(С)
R
(мм)
R24
(мм)
S
(см)
09 10.06 С 1 50 км {ливн. осадки} 9/8 1000 м
[Cb cap Ac trans Ci fib]
+15.8 +10.9 73 +17 +18 холодно 1005.1 933.6
12 10.06 З 5 50 км {ливн. осадки} 9/8 1000 м
[Cb cap Ac trans Ci fib]
+16.3 +8.0 58 +15 +16 очень
холодно
1007.0 935.4 +17.8 6
15 10.06 ЮЗ 2 10 км в посл. час ливневой дождь 10/10 1000 м
[Cb cap]
+14.6 +11.0 79 +14 +14 прохладно 1009.5 937.4
18 10.06 ЮЗ 1 10 км слаб. ливневой дождь 10/10 1000 м
[Cb cap]
+13.1 +11.0 87 +13 +13 по сезону 1011.8 939.2
21 10.06 штиль 0 50 км {ливн. осадки} 9/8 1000 м
[Cb cap Ac trans Ci fib]
+10.9 +9.9 94 +10 +10 прохладно 1013.2 939.9
00 11.06 ЮЗ 1 50 км {ливн. осадки} 9/8 1000 м
[Cb cap Ac trans Ci fib]
+13.2 +11.3 88 +13 +14 по сезону 1014.1 941.4 +10.8 0.8
03 11.06 Ю 1 50 км 9/4 1000 м
[Cb cap Ac trans Ci fib]
+17.0 +10.7 66 +18 +23 по сезону 1013.9 942.1
06 11.06 С 1 50 км в посл. час ливневой дождь 8/6 1000 м
[Cb cap Ci fib]
+20.8 +9.2 47 +23 +31 комфорт 1012.6 941.7
09 11.06 СЗ 3 50 км 9/8 1000 м
[Cb cap Ci fib]
+22.4 +6.6 36 +23 +25 комфорт 1011.9 941.4
12 11.06 С 3
{10}
50 км 8/3 1000 м
[Cu med, cong Ci fib]
+22.2 +6.6 36 +23 +24 комфорт 1012.3 941.6 +23.5 0.0
15 11.06 С 1 10 км 8/3 1000 м
[Sc Ac trans Ci fib]
+17.6 +6.8 49 +19 +19 по сезону 1015.3 943.4
18 11.06 С 3 10 км 3/3 1000 м
[Sc]
+16.6 +5.4 47 +16 +16 тепло 1016.8 944.5
21 11.06 штиль 0 50 км 3/3 1000 м
[Sc]
+9.4 +7.3 87 +9 +9 прохладно 1019.3 945.1
00 12.06 СВ 1 50 км 3/3 1000 м
[Sc Ac trans]
+12.8 +7.0 68 +13 +15 по сезону 1019.0 945.7 +9.4
03 12.06 В 1 50 км 1/1 1000 м
[Cu med, cong]
+19.8 +8.0 46 +22 +35 комфорт 1015.6 944.3
06 12.06 С 2 50 км 3/3 1000 м
[Cu med, cong]
+25.1 +5.6 29 +25 +37 комфорт 1011.6 941.6
09 12.06 СВ 2 50 км 4/3 1000 м
[Cu med, cong Ac trans]
+26.6 +4.6 24 +26 +32 жарко 1008.2 938.8
12 12.06 С 1 50 км 8/5 1000 м
[Sc diur, vesp Ac trans]
+26.5 +5.3 26 +26 +26 жарко 1006.4 937.1 +27.9
15 12.06 СВ 1 10 км 3/0
[Ci fib]
+20.2 +6.3 40 +22 +22 комфорт 1007.8 937.0
18 12.06 С 1 10 км 5/0
[Ac trans Ci fib]
+17.2 +5.7 47 +18 +18 тепло 1008.8 937.3
21 12.06 штиль 0 20 км 6/0
[Ci fib]
+11.8 +7.5 75 +11 +11 прохладно 1009.8 936.9
00 13.06 С 1 50 км 9/0
[Ac trans Ci fib]
+15.0 +4.2 48 +16 +18 тепло 1008.7 936.6 +11.8
03 13.06 штиль 0 50 км 10/10 1000 м
[Cb cap]
+21.3 +5.2 35 +22 +22 комфорт 1005.5 935.1
06 13.06 З 2 50 км 10/10 1000 м
[Cb cap]
+23.3 +4.6 30 +23 +23 комфорт 1004.9 935.0
09 13.06 штиль 0 50 км 10/10 1000 м
[Cb cap]
+23.7 +6.5 33 +24 +24 комфорт 1003.5 933.8
12 13.06 СЗ 2 50 км {ливн. осадки} 10/10 1000 м
[Cb cap]
+23.6 +6.0 32 +24 +24 комфорт 1002.6 933.0 +24.7 0.0
15 13.06 штиль 0 50 км 10/9 1000 м
[Cb cap Ac As]
+20.0 +9.0 49 +21 +21 комфорт 1003.1 932.7
18 13.06 В 1 10 км 10/10 1000 м
[Cb cap]
+18.0 +9.0 56 +19 +19 тепло 1003.6 932.7
21 13.06 В 1 4000 м ливневой дождь 10/10 1000 м
[Cb cap]
+14.6 +14.3 98 +15 +15 по сезону 1003.7 932.1
00 14.06 С 2 50 км слаб. ливневой дождь 10/10 600 м
[Cb cap]
+14.8 +13.2 90 +14 +14 по сезону 1003.4 931.8 +14.6 6
03 14.06 З 1 50 км слаб. ливневой дождь 10/10 600 м
[Cb cap]
+16.2 +13.0 81 +17 +17 по сезону 1001.8 930.6
06 14.06 З 1 10 км слаб. ливневой дождь 10/10 600 м
[Cb cap]
+16.8 +14.4 86 +18 +18 прохладно 1002.3 931.3
09 14.06 СЗ 1 50 км слаб. ливневой дождь 10/10 600 м
[Cb cap]
+17.8 +14.0 78 +19 +19 прохладно 1002.1 931.4
12 14.06 ЮЗ 2 50 км слаб. ливневой дождь 10/10 1000 м
[Cb cap]
+17.7 +13.7 77 +18 +18 холодно 1002.6 931.8 +18.5 5
15 14.06 Ю 1 10 км слаб. ливневой дождь 10/10 600 м
[Cb cap]
+15.6 +14.2 91 +16 +16 прохладно 1004.7 933.3
18 14.06 ЮЗ 1 10 км {ливн. осадки} 10/10 1000 м
[Cb cap]
+15.2 +14.0 93 +16 +16 по сезону 1004.5 933.0
21 14.06 штиль 0 10 км {ливн. осадки} 10/10 1000 м
[Cb cap]
+14.6 +13.5 93 +14 +14 по сезону 1004.0 932.4
00 15.06 Ю 1 50 км {ливн. осадки} 10/10 1000 м
[Cb cap]
+14.6 +12.8 89 +15 +15 тепло 1004.6 932.9 +14.4 1
03 15.06 штиль 0 50 км {ливн. осадки} 9/8 600 м
[Cb cap Ac trans Ci fib]
+16.5 +13.5 82 +16 +19 по сезону 1004.5 933.3
06 15.06 ЮВ 1 50 км {ливн. осадки} 9/5 1000 м
[Cb cap Ac trans Ci fib]
+21.4 +13.6 61 +24 +30 комфорт 1001.9 932.0
09 15.06 З 2 50 км {ливн. осадки} 9/6 1000 м
[Cb cap Ac trans Ci fib]
+25.3 +12.7 46 +27 +30 жарко 999.5 930.6
12 15.06 СЗ 2 50 км {ливн. осадки} 9/3 1000 м
[Cu Sc Ac trans Ci fib]
+24.7 +11.0 42 +26 +27 жарко 1000.0 930.9 +25.9 0.0
15 15.06 СЗ 1 10 км 8/4 1000 м
[Sc Ac trans]
+19.8 +12.5 63 +23 +23 комфорт 1001.3 931.0
18 15.06 штиль 0 10 км 6/3 1000 м
[Sc Ac trans Ci fib]
+15.1 +12.6 85 +15 +15 по сезону 1003.3 931.8
21 15.06 штиль 0 50 км 8/3 1000 м
[Sc Ac trans Ci fib]
+13.2 +11.7 91 +13 +13 по сезону 1004.3 932.3
00 16.06 штиль 0 50 км 6/3 1000 м
[Cu med, cong Ac trans]
+16.2 +12.4 78 +16 +18 тепло 1003.6 932.4 +12.3
03 16.06 С 1 50 км 4/3 1000 м
[Sc Ac trans]
+21.6 +13.5 60 +24 +34 комфорт 1002.5 932.6
06 16.06 СВ 2 50 км 6/4 1000 м
[Cb cap Ac trans Ci fib]
+25.8 +13.0 45 +28 +36 жарко 999.3 930.5
09 16.06 З 2 50 км 8/6 1000 м
[Cb cap Ac trans Ci fib]
+29.1 +8.7 28 +29 +32 жарко 996.9 928.9
12 16.06 СЗ 3
{13}
50 км в посл. час ливневой дождь {гроза} 9/6 1000 м
[Cb cap Ac trans Ci fib]
+20.7 +12.2 58 +23 +24 комфорт 1001.2 931.1 +29.5 0.1
15 16.06 С 3 10 км 8/3 1000 м
[Sc Ci fib]
+18.5 +12.2 67 +19 +19 по сезону 1002.0 931.4
18 16.06 СВ 2 10 км 3/1 1000 м
[Sc Ac trans Ci fib]
+15.6 +11.9 79 +16 +16 по сезону 1003.0 931.6
21 16.06 штиль 0 20 км 5/3 1000 м
[Sc Ci fib]
+13.6 +11.0 84 +13 +13 по сезону 1003.3 931.4
00 17.06 С 1 50 км {ливн. осадки} 9/5 1000 м
[Cb cap Ac trans Ci fib]
+15.7 +11.5 76 +16 +17 тепло 1003.4 932.0 +12.7 0.6
03 17.06 З 5-11
{12}
10 км ливневой дождь, в посл. час гроза 10/10 600 м
[Cb cap]
+11.3 +8.3 82 +9 +9 очень
холодно
1010.0 937.0 +11.1
06 17.06 СЗ 6-12
{15}
50 км в посл. час ливневой дождь {гроза} 9/8 1000 м
[Cb cap Ci fib]
+13.0 +7.0 67 +11 +12 очень
холодно
1011.3 938.5

 

Местоположение метеостанции Кызыл (Тува, Россия): широта 51.72 долгота 94.50 высота над уровнем моря 632 м.

В архиве по умолчанию представлена погода в Кызыле за последнюю неделю. Архивные данные за месяц целиком и за предыдущие месяцы, начиная с января 2011 года, Вы можете получить, выбрав интересующий диапазон дат из раскрывающегося списка и нажав кнопку "Ввод!".


*Определитесь, кто Вы:
робот инопланетянин человек

Внимание! Время в таблицах - всемирное. Для получения местного времени необходимо прибавить поправку, которая равна 7 ч.

Смотрите также архив погоды в соседних городах и на ближайших метеорологических станциях:

Погода в Туране (Тува, Россия) (61 км)
Погода в Сосновке (Тува, Россия) (63 км)
Погода в Сарыг-Сепе (Тува, Россия) (78 км)
Погода в Хову-Аксы (Тува, Россия) (81 км)
Погода в Нижнеусинском (Красноярский край, Россия) (118 км)
Погода в Шагонаре (Тува, Россия) (127 км)
Погода в Тоора-Хем (Тува, Россия) (138 км)
Погода в Оленьей Речке (Красноярский край, Россия) (148 км)
Погода в Усть-Усе (Красноярский край, Россия) (159 км)
Погода в Эрзине (Тува, Россия) (167 км)

Пояснения к столбцам:

Ветер - указаны скорость ветра в м/с - средняя за 10 мин, порывы в срок и между сроками (в фигурных скобках) и направление, откуда дует ветер: С - северный, СВ - северо-восточный, В - восточный, ЮВ - юго-восточный, Ю - южный, ЮЗ - юго-западный, З - западный, СЗ - северо-западный.
Видимость - горизонтальная дальность видимости в метрах или километрах. При видимости от 1 до 10 км при отсутствии осадков обычно наблюдается дымка, при ухудшении видимости до 1 км и менее - туман. В сухую погоду видимость может ухудшаться дымом, пылью или мглою.
Явления - указаны атмосферные явления, наблюдавшиеся в срок или в последний час перед сроком; фигурными скобками обозначены явления, наблюдавшиеся между сроками (за 1-3 часа до срока); квадратными скобками обозначены град или гололедные отложения с указанием их диаметра в мм.
Облачность - указаны через наклонную черту общая и нижняя облачность в баллах и высота нижней границы облаков в метрах; квадратными скобками обозначены формы облаков: Ci - перистые, Cs - перисто-слоистые, Cc - перисто-кучевые, Ac - высококучевые, As - высокослоистые, Sc - слоисто-кучевые, Ns - слоисто-дождевые, Cu - кучевые, Cb - кучево-дождевые. Подробнее классификацию облаков см. в Атласе облаков (PDF).
T - Температура воздуха - температура, измеренная на высоте 2 м над землей.
Td - Температура точки росы - температура, при понижении до которой содержащийся в воздухе водяной пар достигнет насыщения.
f - Относительная влажность воздуха - влажноcть воздуха, измеренная на высоте 2 м над землей.
Te - Эффективная температура - температура, которую ощущает одетый по сезону человек в тени. Характеристика душности погоды. При расчете учитывается влияние влажности воздуха и скорости ветра на теплоощущения человека.
Tes - Эффективная температура на солнце - температура, которую ощущает человек, с поправкой на солнечный нагрев. Характеристика знойности погоды. Зависит от высоты солнца над горизонтом, облачности и скорости ветра. Ночью, в пасмурную погоду, а также при ветре 12 м/с и более поправка равна нулю.
P - Атмосферное давление - приведенное к уровню моря атмосферное давление.
Po - Атмосферное давление - измеренное на уровне метеостанции атмосферное давление.
Tmin - Минимальная температура - минимум температуры воздуха на высоте 2 м над землей.
Tmax - Максимальная температура - максимум температуры воздуха на высоте 2 м над землей.
R - Количество осадков - Количество выпавших осадков за период времени, мм. При наведении курсора мыши на число - период времени, за который выпало указанное количество осадков.
R24 - Количество осадков - Количество выпавших осадков за 24 часа, мм.
S - Снежный покров - Высота снежного покрова, см. При наведении курсора мыши на число - состояние снежного покрова и степень покрытия местности в баллах.